| time (UTC) | temp C | wind direction | speed KPH | gust KPH | rain 1hr cm | rain 24hr cm | rain mn cm | humidity % | barometer mb |
| 20260831141327 | 29 | 218 | 1.6 | 3.2 | 0.00 | 0.00 | 0.00 | 74 | 1021.1 |
| 20260831140822 | 29 | 277 | 1.6 | 4.8 | 0.00 | 0.00 | 0.00 | 74 | 1020.9 |
| 20260831140316 | 29 | 305 | 1.6 | 3.2 | 0.00 | 0.00 | 0.00 | 75 | 1021.0 |
| 20260831135815 | 28 | 219 | 0.0 | 4.8 | 0.00 | 0.00 | 0.00 | 75 | 1021.1 |
| 20260831135310 | 28 | 324 | 0.0 | 1.6 | 0.00 | 0.00 | 0.00 | 77 | 1021.0 |
| 20260831134805 | 28 | 214 | 1.6 | 1.6 | 0.00 | 0.00 | 0.00 | 78 | 1021.1 |
| 20260831134302 | 28 | 336 | 3.2 | 6.4 | 0.00 | 0.00 | 0.00 | 78 | 1021.0 |
| 20260831133801 | 28 | 236 | 3.2 | 4.8 | 0.00 | 0.00 | 0.00 | 78 | 1021.2 |
| 20260831133301 | 27 | 226 | 0.0 | 3.2 | 0.00 | 0.00 | 0.00 | 78 | 1021.2 |
| 20260831132755 | 27 | 0 | 0.0 | 3.2 | 0.00 | 0.00 | 0.00 | 80 | 1020.9 |
| 20260831132250 | 27 | 294 | 0.0 | 4.8 | 0.00 | 0.00 | 0.00 | 80 | 1020.9 |
| 20260831131744 | 28 | 305 | 3.2 | 4.8 | 0.00 | 0.00 | 0.00 | 78 | 1021.0 |
| 20260831131242 | 27 | 97 | 0.0 | 1.6 | 0.00 | 0.00 | 0.00 | 79 | 1020.8 |
| 20260831130736 | 27 | 354 | 0.0 | 6.4 | 0.00 | 0.00 | 0.00 | 81 | 1020.9 |
| 20260831130231 | 27 | 228 | 1.6 | 1.6 | 0.00 | 0.00 | 0.00 | 79 | 1020.8 |
| 20260831125730 | 27 | 212 | 0.0 | 1.6 | 0.00 | 0.00 | 0.00 | 80 | 1020.8 |
| 20260831125226 | 27 | 279 | 0.0 | 4.8 | 0.00 | 0.00 | 0.00 | 82 | 1020.8 |
| 20260831124721 | 27 | 104 | 0.0 | 1.6 | 0.00 | 0.00 | 0.00 | 83 | 1020.8 |
| 20260831124217 | 26 | 343 | 0.0 | 1.6 | 0.00 | 0.00 | 0.00 | 83 | 1020.9 |
| 20260831123716 | 26 | 113 | 0.0 | 0.0 | 0.00 | 0.00 | 0.00 | 83 | 1020.9 |
| 20260831123215 | 26 | 113 | 0.0 | 1.6 | 0.00 | 0.00 | 0.00 | 84 | 1020.9 |
| 20260831122710 | 26 | 113 | 0.0 | 3.2 | 0.00 | 0.00 | 0.00 | 83 | 1021.0 |
| 20260831122206 | 26 | 117 | 0.0 | 0.0 | 0.00 | 0.00 | 0.00 | 84 | 1020.9 |
| 20260831121705 | 26 | 117 | 0.0 | 1.6 | 0.00 | 0.00 | 0.00 | 84 | 1020.8 |
| 20260831121202 | 25 | 147 | 0.0 | 1.6 | 0.00 | 0.00 | 0.00 | 86 | 1020.9 |
| 20260831120657 | 25 | 147 | 0.0 | 1.6 | 0.00 | 0.00 | 0.00 | 88 | 1020.9 |
| 20260831120151 | 23 | 216 | 0.0 | 0.0 | 0.00 | 0.00 | 0.00 | 92 | 1020.7 |
| 20260831115647 | 23 | 206 | 0.0 | 0.0 | 0.00 | 0.00 | 0.00 | 93 | 1020.8 |
| 20260831115143 | 23 | 184 | 0.0 | 1.6 | 0.00 | 0.00 | 0.00 | 94 | 1020.6 |
| 20260831114642 | 22 | 210 | 0.0 | 0.0 | 0.00 | 0.00 | 0.00 | 97 | 1020.6 |
| 20260831114137 | 22 | 209 | 0.0 | 0.0 | 0.00 | 0.00 | 0.00 | 97 | 1020.6 |
| 20260831113637 | 22 | 213 | 0.0 | 0.0 | 0.00 | 0.00 | 0.00 | 98 | 1020.4 |
| 20260831113132 | 22 | 226 | 0.0 | 0.0 | 0.00 | 0.00 | 0.00 | 98 | 1020.5 |
| 20260831112631 | 22 | 225 | 0.0 | 0.0 | 0.00 | 0.00 | 0.00 | 99 | 1020.4 |
| 20260831112126 | 22 | 235 | 0.0 | 0.0 | 0.00 | 0.00 | 0.00 | 99 | 1020.3 |
| 20260831111622 | 21 | 235 | 0.0 | 0.0 | 0.00 | 0.00 | 0.00 | 99 | 1020.5 |
| 20260831111118 | 21 | 311 | 0.0 | 0.0 | 0.00 | 0.00 | 0.00 | 99 | 1020.4 |
| 20260831110613 | 21 | 240 | 0.0 | 0.0 | 0.00 | 0.00 | 0.00 | 99 | 1020.3 |
| 20260831110109 | 21 | 240 | 0.0 | 0.0 | 0.00 | 0.00 | 0.00 | 99 | 1020.3 |
| 20260831105607 | 21 | 229 | 0.0 | 0.0 | 0.00 | 0.00 | 0.00 | 99 | 1020.3 |
| 20260831105102 | 21 | 232 | 0.0 | 0.0 | 0.00 | 0.00 | 0.00 | 99 | 1020.3 |
| 20260831104558 | 21 | 239 | 0.0 | 0.0 | 0.00 | 0.00 | 0.00 | 99 | 1020.4 |
| 20260831104054 | 21 | 240 | 0.0 | 0.0 | 0.00 | 0.00 | 0.00 | 99 | 1020.2 |
| 20260831103549 | 21 | 240 | 0.0 | 0.0 | 0.00 | 0.00 | 0.00 | 99 | 1020.3 |
| 20260831103045 | 21 | 241 | 0.0 | 0.0 | 0.00 | 0.00 | 0.00 | 99 | 1020.3 |
| 20260831102544 | 21 | 240 | 0.0 | 0.0 | 0.00 | 0.00 | 0.00 | 99 | 1020.2 |
| 20260831102040 | 21 | 243 | 0.0 | 0.0 | 0.00 | 0.00 | 0.00 | 99 | 1020.1 |
| 20260831101535 | 21 | 242 | 0.0 | 0.0 | 0.00 | 0.00 | 0.00 | 99 | 1020.1 |
| 20260831101031 | 21 | 240 | 0.0 | 0.0 | 0.00 | 0.00 | 0.00 | 98 | 1020.0 |
| 20260831100526 | 21 | 241 | 0.0 | 0.0 | 0.00 | 0.00 | 0.00 | 98 | 1019.9 |
| 20260831100023 | 21 | 230 | 0.0 | 0.0 | 0.00 | 0.00 | 0.00 | 98 | 1019.7 |
| 20260831095521 | 21 | 239 | 0.0 | 0.0 | 0.00 | 0.00 | 0.00 | 98 | 1019.9 |
| 20260831095016 | 21 | 243 | 0.0 | 0.0 | 0.00 | 0.00 | 0.00 | 98 | 1019.9 |
| 20260831094512 | 21 | 245 | 0.0 | 0.0 | 0.00 | 0.00 | 0.00 | 98 | 1019.9 |
| 20260831094008 | 21 | 239 | 0.0 | 0.0 | 0.00 | 0.00 | 0.00 | 98 | 1020.1 |
| 20260831093508 | 21 | 237 | 0.0 | 0.0 | 0.00 | 0.00 | 0.00 | 98 | 1019.9 |
| 20260831093004 | 21 | 239 | 0.0 | 0.0 | 0.00 | 0.00 | 0.00 | 98 | 1020.2 |
| 20260831092459 | 21 | 236 | 0.0 | 0.0 | 0.00 | 0.00 | 0.00 | 98 | 1020.2 |
| 20260831091954 | 22 | 239 | 0.0 | 0.0 | 0.00 | 0.00 | 0.00 | 98 | 1019.9 |
| 20260831091450 | 22 | 239 | 0.0 | 0.0 | 0.00 | 0.00 | 0.00 | 98 | 1020.0 |
| 20260831090944 | 22 | 242 | 0.0 | 0.0 | 0.00 | 0.00 | 0.00 | 97 | 1020.1 |
| 20260831090441 | 22 | 243 | 0.0 | 0.0 | 0.00 | 0.00 | 0.00 | 97 | 1020.2 |
| 20260831085937 | 22 | 231 | 0.0 | 0.0 | 0.00 | 0.00 | 0.00 | 97 | 1020.1 |
| 20260831085432 | 22 | 249 | 0.0 | 0.0 | 0.00 | 0.00 | 0.00 | 97 | 1020.0 |
| 20260831084931 | 22 | 250 | 0.0 | 0.0 | 0.00 | 0.00 | 0.00 | 96 | 1020.1 |
| 20260831084427 | 22 | 249 | 0.0 | 0.0 | 0.00 | 0.00 | 0.00 | 96 | 1020.2 |
| 20260831083924 | 22 | 251 | 0.0 | 0.0 | 0.00 | 0.00 | 0.00 | 96 | 1020.1 |
| 20260831083419 | 22 | 250 | 0.0 | 0.0 | 0.00 | 0.00 | 0.00 | 95 | 1020.0 |
| 20260831082918 | 22 | 247 | 0.0 | 0.0 | 0.00 | 0.00 | 0.00 | 95 | 1019.9 |
| 20260831082412 | 22 | 240 | 0.0 | 0.0 | 0.00 | 0.00 | 0.00 | 95 | 1019.9 |
| 20260831081908 | 22 | 225 | 0.0 | 0.0 | 0.00 | 0.00 | 0.00 | 94 | 1020.0 |
| 20260831081403 | 23 | 212 | 0.0 | 0.0 | 0.00 | 0.00 | 0.00 | 94 | 1019.9 |
| 20260831080859 | 23 | 211 | 0.0 | 0.0 | 0.00 | 0.00 | 0.00 | 93 | 1019.9 |
| 20260831080354 | 23 | 177 | 0.0 | 0.0 | 0.00 | 0.00 | 0.00 | 94 | 1020.0 |
| 20260831075849 | 23 | 167 | 0.0 | 0.0 | 0.00 | 0.00 | 0.00 | 94 | 1020.0 |
| 20260831075344 | 23 | 167 | 0.0 | 0.0 | 0.00 | 0.00 | 0.00 | 93 | 1020.0 |
| 20260831074839 | 23 | 172 | 0.0 | 0.0 | 0.00 | 0.00 | 0.00 | 93 | 1019.8 |
| 20260831074338 | 23 | 173 | 0.0 | 0.0 | 0.00 | 0.00 | 0.00 | 93 | 1019.9 |
| 20260831073834 | 23 | 171 | 0.0 | 0.0 | 0.00 | 0.00 | 0.00 | 93 | 1020.1 |
| 20260831073333 | 23 | 152 | 0.0 | 1.6 | 0.00 | 0.00 | 0.00 | 93 | 1020.1 |
| 20260831072828 | 23 | 153 | 0.0 | 0.0 | 0.00 | 0.00 | 0.00 | 93 | 1020.0 |
| 20260831072324 | 23 | 183 | 0.0 | 0.0 | 0.00 | 0.00 | 0.00 | 93 | 1020.0 |
| 20260831071820 | 23 | 185 | 0.0 | 0.0 | 0.00 | 0.00 | 0.00 | 93 | 1020.2 |
| 20260831071319 | 23 | 149 | 0.0 | 0.0 | 0.00 | 0.00 | 0.00 | 93 | 1020.2 |
| 20260831070814 | 23 | 150 | 0.0 | 1.6 | 0.00 | 0.00 | 0.00 | 93 | 1020.2 |
| 20260831070312 | 23 | 154 | 0.0 | 0.0 | 0.00 | 0.00 | 0.00 | 93 | 1020.1 |
| 20260831065812 | 23 | 155 | 0.0 | 0.0 | 0.00 | 0.00 | 0.00 | 94 | 1020.1 |
| 20260831065310 | 23 | 154 | 0.0 | 0.0 | 0.00 | 0.00 | 0.00 | 94 | 1020.0 |
| 20260831064806 | 22 | 154 | 0.0 | 0.0 | 0.00 | 0.00 | 0.00 | 95 | 1020.3 |
| 20260831064301 | 22 | 155 | 0.0 | 0.0 | 0.00 | 0.00 | 0.00 | 95 | 1020.3 |
| 20260831063757 | 22 | 154 | 0.0 | 0.0 | 0.00 | 0.00 | 0.00 | 95 | 1020.3 |
| 20260831063251 | 22 | 155 | 0.0 | 0.0 | 0.00 | 0.00 | 0.00 | 95 | 1020.3 |
| 20260831062746 | 22 | 186 | 0.0 | 0.0 | 0.00 | 0.00 | 0.00 | 95 | 1020.3 |
| 20260831062241 | 22 | 239 | 0.0 | 0.0 | 0.00 | 0.00 | 0.00 | 95 | 1020.2 |
| 20260831061739 | 22 | 248 | 0.0 | 0.0 | 0.00 | 0.00 | 0.00 | 95 | 1020.0 |
| 20260831061234 | 22 | 248 | 0.0 | 0.0 | 0.00 | 0.00 | 0.00 | 95 | 1020.2 |
| 20260831060730 | 22 | 204 | 0.0 | 0.0 | 0.00 | 0.00 | 0.00 | 94 | 1020.3 |
| 20260831060225 | 23 | 205 | 0.0 | 0.0 | 0.00 | 0.00 | 0.00 | 94 | 1020.3 |
| 20260831055725 | 23 | 210 | 0.0 | 0.0 | 0.00 | 0.00 | 0.00 | 94 | 1020.5 |
| 20260831055224 | 23 | 248 | 0.0 | 0.0 | 0.00 | 0.00 | 0.00 | 93 | 1020.4 |
| 20260831054719 | 23 | 248 | 0.0 | 0.0 | 0.00 | 0.00 | 0.00 | 93 | 1020.3 |
| 20260831054215 | 23 | 248 | 0.0 | 0.0 | 0.00 | 0.00 | 0.00 | 93 | 1020.4 |
| 20260831053713 | 23 | 200 | 0.0 | 0.0 | 0.00 | 0.00 | 0.00 | 92 | 1020.3 |
| 20260831053213 | 23 | 200 | 0.0 | 0.0 | 0.00 | 0.00 | 0.00 | 92 | 1020.4 |
| 20260831052712 | 23 | 224 | 0.0 | 0.0 | 0.00 | 0.00 | 0.00 | 92 | 1020.7 |
| 20260831052211 | 23 | 235 | 0.0 | 0.0 | 0.00 | 0.00 | 0.00 | 92 | 1020.5 |
| 20260831051709 | 23 | 235 | 0.0 | 0.0 | 0.00 | 0.00 | 0.00 | 92 | 1020.4 |
| 20260831051208 | 23 | 331 | 0.0 | 0.0 | 0.00 | 0.00 | 0.00 | 92 | 1020.7 |
| 20260831050703 | 23 | 239 | 0.0 | 0.0 | 0.00 | 0.00 | 0.00 | 92 | 1020.8 |
| 20260831050202 | 23 | 239 | 0.0 | 0.0 | 0.00 | 0.00 | 0.00 | 92 | 1020.6 |
| 20260831045657 | 23 | 220 | 0.0 | 0.0 | 0.00 | 0.00 | 0.00 | 92 | 1020.6 |
| 20260831045152 | 23 | 183 | 0.0 | 1.6 | 0.00 | 0.00 | 0.00 | 92 | 1020.6 |
| 20260831044647 | 23 | 111 | 0.0 | 0.0 | 0.00 | 0.00 | 0.00 | 93 | 1020.8 |
| 20260831044142 | 23 | 111 | 0.0 | 0.0 | 0.00 | 0.00 | 0.00 | 93 | 1020.8 |
| 20260831043638 | 23 | 110 | 0.0 | 0.0 | 0.00 | 0.00 | 0.00 | 93 | 1020.8 |
| 20260831043133 | 23 | 108 | 0.0 | 0.0 | 0.00 | 0.00 | 0.00 | 93 | 1020.7 |
| 20260831042632 | 23 | 108 | 0.0 | 0.0 | 0.00 | 0.00 | 0.00 | 94 | 1020.8 |
| 20260831042127 | 23 | 111 | 0.0 | 0.0 | 0.00 | 0.00 | 0.00 | 94 | 1020.8 |
| 20260831041621 | 23 | 108 | 0.0 | 0.0 | 0.00 | 0.00 | 0.00 | 94 | 1020.7 |
| 20260831041120 | 23 | 112 | 0.0 | 0.0 | 0.00 | 0.00 | 0.00 | 94 | 1020.8 |
| 20260831040616 | 23 | 112 | 0.0 | 0.0 | 0.00 | 0.00 | 0.00 | 95 | 1020.8 |
| 20260831040109 | 23 | 108 | 0.0 | 0.0 | 0.00 | 0.00 | 0.00 | 95 | 1020.8 |
| 20260831035607 | 23 | 108 | 0.0 | 0.0 | 0.00 | 0.00 | 0.00 | 95 | 1020.8 |
| 20260831035057 | 23 | 109 | 0.0 | 0.0 | 0.00 | 0.00 | 0.00 | 94 | 1020.9 |
| 20260831034556 | 23 | 111 | 0.0 | 0.0 | 0.00 | 0.00 | 0.00 | 94 | 1021.0 |
| 20260831034052 | 23 | 110 | 0.0 | 0.0 | 0.00 | 0.00 | 0.00 | 94 | 1021.0 |
| 20260831033547 | 23 | 112 | 0.0 | 0.0 | 0.00 | 0.00 | 0.00 | 93 | 1021.1 |
| 20260831033042 | 23 | 109 | 0.0 | 0.0 | 0.00 | 0.00 | 0.00 | 93 | 1021.1 |
| 20260831032542 | 23 | 112 | 0.0 | 0.0 | 0.00 | 0.00 | 0.00 | 93 | 1020.9 |
| 20260831032038 | 23 | 111 | 0.0 | 0.0 | 0.00 | 0.00 | 0.00 | 93 | 1021.1 |
| 20260831031536 | 24 | 112 | 0.0 | 0.0 | 0.00 | 0.00 | 0.00 | 92 | 1021.1 |
| 20260831031031 | 24 | 112 | 0.0 | 0.0 | 0.00 | 0.00 | 0.00 | 92 | 1021.0 |
| 20260831030530 | 24 | 112 | 0.0 | 0.0 | 0.00 | 0.00 | 0.00 | 92 | 1021.1 |
| 20260831030030 | 24 | 111 | 0.0 | 0.0 | 0.00 | 0.00 | 0.00 | 92 | 1021.0 |
| 20260831025527 | 24 | 112 | 0.0 | 0.0 | 0.00 | 0.00 | 0.00 | 92 | 1021.2 |
| 20260831025023 | 24 | 111 | 0.0 | 0.0 | 0.00 | 0.00 | 0.00 | 92 | 1021.1 |
| 20260831024513 | 24 | 111 | 0.0 | 0.0 | 0.00 | 0.00 | 0.00 | 92 | 1021.0 |
| 20260831024013 | 24 | 111 | 0.0 | 0.0 | 0.00 | 0.00 | 0.00 | 92 | 1021.1 |
| 20260831023510 | 24 | 112 | 0.0 | 0.0 | 0.00 | 0.00 | 0.00 | 92 | 1021.0 |
| 20260831023005 | 24 | 111 | 0.0 | 0.0 | 0.00 | 0.00 | 0.00 | 92 | 1020.8 |
| 20260831022504 | 24 | 112 | 0.0 | 0.0 | 0.00 | 0.00 | 0.00 | 91 | 1021.0 |
| 20260831022000 | 24 | 111 | 0.0 | 0.0 | 0.00 | 0.00 | 0.00 | 91 | 1021.2 |
| 20260831021458 | 25 | 112 | 0.0 | 0.0 | 0.00 | 0.00 | 0.00 | 90 | 1021.3 |
| 20260831020954 | 25 | 112 | 0.0 | 0.0 | 0.00 | 0.00 | 0.00 | 90 | 1021.0 |
| 20260831020449 | 25 | 112 | 0.0 | 0.0 | 0.00 | 0.00 | 0.00 | 90 | 1021.1 |
| 20260831015943 | 25 | 112 | 0.0 | 0.0 | 0.00 | 0.00 | 0.00 | 89 | 1021.1 |
| 20260831015439 | 25 | 112 | 0.0 | 0.0 | 0.00 | 0.00 | 0.00 | 89 | 1021.0 |
| 20260831014934 | 25 | 112 | 0.0 | 0.0 | 0.00 | 0.00 | 0.00 | 88 | 1021.2 |
| 20260831014429 | 25 | 111 | 0.0 | 1.6 | 0.00 | 0.00 | 0.00 | 89 | 1021.2 |
| 20260831013924 | 25 | 250 | 0.0 | 0.0 | 0.00 | 0.00 | 0.00 | 90 | 1021.0 |
| 20260831013420 | 25 | 239 | 0.0 | 0.0 | 0.00 | 0.00 | 0.00 | 90 | 1021.2 |
| 20260831012914 | 25 | 248 | 0.0 | 0.0 | 0.00 | 0.00 | 0.00 | 89 | 1021.2 |
| 20260831012409 | 25 | 249 | 0.0 | 0.0 | 0.00 | 0.00 | 0.00 | 88 | 1021.3 |
| 20260831011909 | 25 | 250 | 0.0 | 0.0 | 0.00 | 0.00 | 0.00 | 88 | 1021.3 |
| 20260831011404 | 25 | 250 | 0.0 | 0.0 | 0.00 | 0.00 | 0.00 | 87 | 1021.2 |
| 20260831010859 | 25 | 257 | 0.0 | 0.0 | 0.00 | 0.00 | 0.00 | 87 | 1021.2 |
| 20260831010354 | 25 | 250 | 0.0 | 0.0 | 0.00 | 0.00 | 0.00 | 86 | 1021.0 |
| 20260831005850 | 25 | 242 | 0.0 | 0.0 | 0.00 | 0.00 | 0.00 | 86 | 1021.0 |
| 20260831005345 | 25 | 248 | 0.0 | 0.0 | 0.00 | 0.00 | 0.00 | 86 | 1020.8 |
| 20260831004840 | 26 | 246 | 0.0 | 0.0 | 0.00 | 0.00 | 0.00 | 85 | 1020.9 |
| 20260831004336 | 26 | 247 | 0.0 | 0.0 | 0.00 | 0.00 | 0.00 | 85 | 1020.7 |
| 20260831003832 | 26 | 146 | 0.0 | 0.0 | 0.00 | 0.00 | 0.00 | 84 | 1020.7 |
| 20260831003328 | 26 | 254 | 0.0 | 0.0 | 0.00 | 0.00 | 0.00 | 84 | 1020.6 |
| 20260831002827 | 26 | 238 | 0.0 | 0.0 | 0.00 | 0.00 | 0.00 | 84 | 1020.4 |
| 20260831002320 | 26 | 238 | 0.0 | 0.0 | 0.00 | 0.00 | 0.00 | 83 | 1020.3 |
| 20260831001816 | 26 | 238 | 0.0 | 0.0 | 0.00 | 0.00 | 0.00 | 83 | 1020.4 |
| 20260831001311 | 26 | 238 | 0.0 | 0.0 | 0.00 | 0.00 | 0.00 | 83 | 1020.4 |
| 20260831000809 | 26 | 238 | 0.0 | 0.0 | 0.00 | 0.00 | 0.00 | 81 | 1020.4 |
| 20260831000310 | 26 | 254 | 0.0 | 0.0 | 0.00 | 0.00 | 0.00 | 80 | 1020.3 |
| 20260830235807 | 26 | 235 | 0.0 | 0.0 | 0.00 | 0.00 | 0.00 | 79 | 1020.6 |
| 20260830235305 | 27 | 235 | 0.0 | 0.0 | 0.00 | 0.00 | 0.00 | 79 | 1020.3 |
| 20260830234757 | 27 | 235 | 0.0 | 0.0 | 0.00 | 0.00 | 0.00 | 78 | 1020.4 |
| 20260830234253 | 27 | 211 | 0.0 | 0.0 | 0.00 | 0.00 | 0.00 | 77 | 1020.3 |
| 20260830233748 | 27 | 211 | 0.0 | 0.0 | 0.00 | 0.00 | 0.00 | 76 | 1020.3 |
| 20260830233243 | 27 | 233 | 0.0 | 0.0 | 0.00 | 0.00 | 0.00 | 76 | 1020.3 |
| 20260830232734 | 27 | 232 | 0.0 | 0.0 | 0.00 | 0.00 | 0.00 | 75 | 1020.4 |
| 20260830232229 | 28 | 231 | 0.0 | 0.0 | 0.00 | 0.00 | 0.00 | 74 | 1020.4 |
| 20260830231725 | 28 | 231 | 0.0 | 0.0 | 0.00 | 0.00 | 0.00 | 73 | 1020.4 |
| 20260830231225 | 28 | 231 | 0.0 | 0.0 | 0.00 | 0.00 | 0.00 | 72 | 1020.4 |
| 20260830230720 | 29 | 231 | 0.0 | 0.0 | 0.00 | 0.00 | 0.00 | 69 | 1020.3 |
| 20260830230215 | 30 | 216 | 0.0 | 0.0 | 0.00 | 0.00 | 0.00 | 67 | 1020.1 |
| 20260830225709 | 30 | 198 | 0.0 | 3.2 | 0.00 | 0.00 | 0.00 | 66 | 1020.2 |
| 20260830225209 | 30 | 213 | 0.0 | 1.6 | 0.00 | 0.00 | 0.00 | 66 | 1020.2 |
| 20260830224708 | 30 | 225 | 0.0 | 0.0 | 0.00 | 0.00 | 0.00 | 65 | 1020.2 |
| 20260830224204 | 30 | 219 | 0.0 | 3.2 | 0.00 | 0.00 | 0.00 | 64 | 1020.3 |
| 20260830223701 | 30 | 213 | 0.0 | 0.0 | 0.00 | 0.00 | 0.00 | 67 | 1020.4 |
| 20260830223156 | 30 | 223 | 0.0 | 0.0 | 0.00 | 0.00 | 0.00 | 64 | 1020.2 |
| 20260830222650 | 30 | 165 | 3.2 | 4.8 | 0.00 | 0.00 | 0.00 | 62 | 1020.1 |
| 20260830222146 | 30 | 199 | 0.0 | 0.0 | 0.00 | 0.00 | 0.00 | 63 | 1020.2 |
| 20260830221641 | 30 | 190 | 1.6 | 1.6 | 0.00 | 0.00 | 0.00 | 62 | 1020.3 |
| 20260830221132 | 30 | 219 | 0.0 | 6.4 | 0.00 | 0.00 | 0.00 | 62 | 1020.3 |
| 20260830220627 | 31 | 202 | 0.0 | 0.0 | 0.00 | 0.00 | 0.00 | 61 | 1020.2 |
| 20260830220126 | 31 | 210 | 3.2 | 4.8 | 0.00 | 0.00 | 0.00 | 59 | 1020.3 |
| 20260830215625 | 32 | 218 | 0.0 | 1.6 | 0.00 | 0.00 | 0.00 | 57 | 1020.2 |
| 20260830215120 | 32 | 220 | 0.0 | 3.2 | 0.00 | 0.00 | 0.00 | 57 | 1020.1 |
| 20260830214615 | 32 | 218 | 0.0 | 1.6 | 0.00 | 0.00 | 0.00 | 57 | 1020.2 |
| 20260830214109 | 32 | 219 | 0.0 | 3.2 | 0.00 | 0.00 | 0.00 | 57 | 1020.2 |
| 20260830213603 | 32 | 112 | 4.8 | 6.4 | 0.00 | 0.00 | 0.00 | 55 | 1020.3 |
| 20260830213059 | 32 | 227 | 0.0 | 3.2 | 0.00 | 0.00 | 0.00 | 57 | 1020.1 |
| 20260830212555 | 32 | 188 | 1.6 | 1.6 | 0.00 | 0.00 | 0.00 | 58 | 1020.1 |
| 20260830212055 | 32 | 180 | 3.2 | 4.8 | 0.00 | 0.00 | 0.00 | 56 | 1020.1 |
| 20260830211549 | 33 | 203 | 1.6 | 1.6 | 0.00 | 0.00 | 0.00 | 54 | 1020.0 |
| 20260830211044 | 32 | 251 | 0.0 | 3.2 | 0.00 | 0.00 | 0.00 | 55 | 1020.0 |
| 20260830210539 | 32 | 224 | 0.0 | 3.2 | 0.00 | 0.00 | 0.00 | 55 | 1020.0 |
| 20260830210038 | 32 | 219 | 1.6 | 3.2 | 0.00 | 0.00 | 0.00 | 56 | 1020.0 |
| 20260830205536 | 32 | 186 | 4.8 | 6.4 | 0.00 | 0.00 | 0.00 | 54 | 1020.0 |
| 20260830205032 | 32 | 239 | 0.0 | 3.2 | 0.00 | 0.00 | 0.00 | 57 | 1020.2 |
| 20260830204530 | 32 | 99 | 1.6 | 4.8 | 0.00 | 0.00 | 0.00 | 58 | 1020.3 |
| 20260830204024 | 32 | 238 | 0.0 | 3.2 | 0.00 | 0.00 | 0.00 | 55 | 1020.2 |
| 20260830203520 | 32 | 250 | 1.6 | 3.2 | 0.00 | 0.00 | 0.00 | 56 | 1020.3 |
| 20260830203010 | 33 | 221 | 1.6 | 3.2 | 0.00 | 0.00 | 0.00 | 55 | 1020.1 |
| 20260830202504 | 33 | 225 | 0.0 | 1.6 | 0.00 | 0.00 | 0.00 | 55 | 1020.5 |
| 20260830202001 | 33 | 219 | 0.0 | 1.6 | 0.00 | 0.00 | 0.00 | 56 | 1020.5 |
| 20260830201459 | 32 | 242 | 0.0 | 1.6 | 0.00 | 0.00 | 0.00 | 58 | 1020.3 |
| 20260830200954 | 32 | 219 | 0.0 | 3.2 | 0.00 | 0.00 | 0.00 | 56 | 1020.4 |
| 20260830200449 | 32 | 89 | 3.2 | 3.2 | 0.00 | 0.00 | 0.00 | 57 | 1020.5 |
| 20260830195948 | 32 | 226 | 1.6 | 4.8 | 0.00 | 0.00 | 0.00 | 57 | 1020.7 |
| 20260830195444 | 32 | 207 | 1.6 | 3.2 | 0.00 | 0.00 | 0.00 | 56 | 1020.8 |
| 20260830194942 | 32 | 246 | 0.0 | 1.6 | 0.00 | 0.00 | 0.00 | 56 | 1020.7 |
| 20260830194441 | 32 | 247 | 0.0 | 1.6 | 0.00 | 0.00 | 0.00 | 57 | 1021.0 |
| 20260830193936 | 32 | 237 | 1.6 | 4.8 | 0.00 | 0.00 | 0.00 | 61 | 1021.0 |
| 20260830193435 | 31 | 214 | 0.0 | 1.6 | 0.00 | 0.00 | 0.00 | 59 | 1021.3 |
| 20260830192930 | 32 | 73 | 1.6 | 3.2 | 0.00 | 0.00 | 0.00 | 58 | 1021.4 |
| 20260830192425 | 32 | 239 | 1.6 | 1.6 | 0.00 | 0.00 | 0.00 | 59 | 1021.4 |
| 20260830191920 | 32 | 239 | 1.6 | 1.6 | 0.00 | 0.00 | 0.00 | 57 | 1021.4 |
| 20260830191415 | 32 | 228 | 1.6 | 3.2 | 0.00 | 0.00 | 0.00 | 61 | 1021.3 |
| 20260830190911 | 32 | 233 | 0.0 | 1.6 | 0.00 | 0.00 | 0.00 | 60 | 1021.6 |
| 20260830190406 | 31 | 226 | 1.6 | 6.4 | 0.00 | 0.00 | 0.00 | 61 | 1021.4 |
| 20260830185905 | 32 | 184 | 1.6 | 3.2 | 0.00 | 0.00 | 0.00 | 61 | 1021.6 |
| 20260830185400 | 31 | 171 | 3.2 | 4.8 | 0.00 | 0.00 | 0.00 | 59 | 1021.7 |
| 20260830184855 | 32 | 238 | 1.6 | 4.8 | 0.00 | 0.00 | 0.00 | 60 | 1021.8 |
| 20260830184354 | 32 | 224 | 1.6 | 3.2 | 0.00 | 0.00 | 0.00 | 60 | 1021.7 |
| 20260830183848 | 32 | 66 | 3.2 | 3.2 | 0.00 | 0.00 | 0.00 | 61 | 1021.8 |
| 20260830183343 | 31 | 213 | 0.0 | 4.8 | 0.00 | 0.00 | 0.00 | 63 | 1021.9 |
| 20260830182838 | 31 | 229 | 3.2 | 6.4 | 0.00 | 0.00 | 0.00 | 63 | 1022.0 |
| 20260830182334 | 31 | 231 | 0.0 | 3.2 | 0.00 | 0.00 | 0.00 | 64 | 1022.2 |
| 20260830181830 | 31 | 12 | 3.2 | 3.2 | 0.00 | 0.00 | 0.00 | 64 | 1022.3 |
| 20260830181325 | 31 | 225 | 1.6 | 1.6 | 0.00 | 0.00 | 0.00 | 64 | 1022.4 |
| 20260830180825 | 31 | 241 | 0.0 | 1.6 | 0.00 | 0.00 | 0.00 | 64 | 1022.5 |
| 20260830180319 | 31 | 233 | 0.0 | 1.6 | 0.00 | 0.00 | 0.00 | 64 | 1022.6 |
| 20260830175818 | 31 | 281 | 3.2 | 6.4 | 0.00 | 0.00 | 0.00 | 62 | 1022.6 |
| 20260830175313 | 31 | 101 | 1.6 | 3.2 | 0.00 | 0.00 | 0.00 | 64 | 1022.7 |
| 20260830174809 | 31 | 189 | 1.6 | 6.4 | 0.00 | 0.00 | 0.00 | 62 | 1022.6 |
| 20260830174304 | 31 | 121 | 4.8 | 6.4 | 0.00 | 0.00 | 0.00 | 62 | 1022.7 |
| 20260830173803 | 31 | 248 | 0.0 | 12.9 | 0.00 | 0.00 | 0.00 | 66 | 1022.8 |
| 20260830173259 | 31 | 243 | 4.8 | 4.8 | 0.00 | 0.00 | 0.00 | 62 | 1022.7 |
| 20260830172755 | 31 | 227 | 1.6 | 4.8 | 0.00 | 0.00 | 0.00 | 66 | 1022.8 |
| 20260830172252 | 30 | 114 | 3.2 | 3.2 | 0.00 | 0.00 | 0.00 | 66 | 1023.0 |
| 20260830171747 | 31 | 235 | 1.6 | 3.2 | 0.00 | 0.00 | 0.00 | 67 | 1022.9 |
| 20260830171242 | 31 | 355 | 0.0 | 3.2 | 0.00 | 0.00 | 0.00 | 66 | 1023.0 |
| 20260830170737 | 31 | 238 | 0.0 | 1.6 | 0.00 | 0.00 | 0.00 | 68 | 1023.1 |
| 20260830170236 | 30 | 227 | 0.0 | 1.6 | 0.00 | 0.00 | 0.00 | 67 | 1023.3 |
| 20260830165735 | 30 | 236 | 1.6 | 3.2 | 0.00 | 0.00 | 0.00 | 70 | 1022.9 |
| 20260830165231 | 30 | 313 | 1.6 | 1.6 | 0.00 | 0.00 | 0.00 | 68 | 1023.0 |
| 20260830164727 | 31 | 174 | 0.0 | 1.6 | 0.00 | 0.00 | 0.00 | 64 | 1023.1 |
| 20260830164223 | 31 | 223 | 1.6 | 3.2 | 0.00 | 0.00 | 0.00 | 68 | 1023.4 |
| 20260830163719 | 31 | 133 | 0.0 | 3.2 | 0.00 | 0.00 | 0.00 | 67 | 1023.5 |
| 20260830163214 | 30 | 282 | 1.6 | 3.2 | 0.00 | 0.00 | 0.00 | 70 | 1023.3 |
| 20260830162704 | 30 | 119 | 1.6 | 3.2 | 0.00 | 0.00 | 0.00 | 71 | 1023.3 |
| 20260830162200 | 29 | 228 | 1.6 | 4.8 | 0.00 | 0.00 | 0.00 | 71 | 1023.4 |
| 20260830161655 | 28 | 116 | 0.0 | 1.6 | 0.00 | 0.00 | 0.00 | 74 | 1023.4 |
| 20260830161149 | 29 | 245 | 0.0 | 3.2 | 0.00 | 0.00 | 0.00 | 73 | 1023.6 |
| 20260830160645 | 30 | 246 | 0.0 | 3.2 | 0.00 | 0.00 | 0.00 | 73 | 1023.5 |
| 20260830160139 | 30 | 157 | 0.0 | 3.2 | 0.00 | 0.00 | 0.00 | 70 | 1023.7 |
| 20260830155636 | 30 | 200 | 1.6 | 4.8 | 0.00 | 0.00 | 0.00 | 71 | 1023.7 |
| 20260830155132 | 30 | 238 | 0.0 | 4.8 | 0.00 | 0.00 | 0.00 | 74 | 1024.0 |
| 20260830154626 | 29 | 235 | 1.6 | 3.2 | 0.00 | 0.00 | 0.00 | 74 | 1023.9 |
| 20260830154123 | 28 | 153 | 0.0 | 1.6 | 0.00 | 0.00 | 0.00 | 76 | 1023.8 |
| 20260830153619 | 28 | 213 | 1.6 | 6.4 | 0.00 | 0.00 | 0.00 | 77 | 1023.9 |
| 20260830153119 | 28 | 249 | 0.0 | 3.2 | 0.00 | 0.00 | 0.00 | 76 | 1023.9 |
| 20260830152618 | 28 | 142 | 1.6 | 3.2 | 0.00 | 0.00 | 0.00 | 75 | 1024.0 |
| 20260830152116 | 28 | 238 | 0.0 | 1.6 | 0.00 | 0.00 | 0.00 | 76 | 1023.9 |
| 20260830151611 | 28 | 255 | 1.6 | 6.4 | 0.00 | 0.00 | 0.00 | 73 | 1023.8 |
| 20260830151106 | 28 | 197 | 3.2 | 4.8 | 0.00 | 0.00 | 0.00 | 75 | 1023.9 |
| 20260830150601 | 29 | 221 | 1.6 | 1.6 | 0.00 | 0.00 | 0.00 | 73 | 1023.9 |
| 20260830150055 | 28 | 114 | 4.8 | 4.8 | 0.00 | 0.00 | 0.00 | 75 | 1023.9 |
| 20260830145549 | 28 | 175 | 0.0 | 4.8 | 0.00 | 0.00 | 0.00 | 77 | 1024.0 |
| 20260830145045 | 28 | 121 | 1.6 | 4.8 | 0.00 | 0.00 | 0.00 | 79 | 1024.1 |
| 20260830144541 | 28 | 181 | 1.6 | 4.8 | 0.00 | 0.00 | 0.00 | 78 | 1024.0 |
| 20260830144036 | 28 | 271 | 1.6 | 3.2 | 0.00 | 0.00 | 0.00 | 79 | 1024.0 |
| 20260830143532 | 28 | 211 | 1.6 | 4.8 | 0.00 | 0.00 | 0.00 | 80 | 1024.1 |
| 20260830143030 | 27 | 121 | 1.6 | 3.2 | 0.00 | 0.00 | 0.00 | 82 | 1024.1 |
| 20260830142526 | 27 | 152 | 3.2 | 4.8 | 0.00 | 0.00 | 0.00 | 83 | 1024.1 |
| 20260830142021 | 26 | 267 | 0.0 | 4.8 | 0.00 | 0.00 | 0.00 | 86 | 1024.3 |